Flag for Germany Weather past 2 weeks in Langenhagen, Lower Saxony, Germany

Now
79 °F

Passing clouds.


Feels Like: 80 °F
Forecast: 59 / 66 °F
Wind: 9 mph from South

Location: Hannover

Current Time: Jul 7, 2015 at 11:54:10 AM

Latest Report: Jul 7, 2015 at 11:20 AM


Visibility: N/A

Pressure: 29.89 "Hg

Humidity: 51%

Dew point: 59 °F

Location of LangenhagenLocation

Historic Weather in Langenhagen — Graph

°F

Langenhagen temperature yesterday

Maximum temperature yesterday: 75 °F (at 5:20 PM)
Minimum temperature yesterday: 61 °F (at 5:20 AM)
Average temperature yesterday: 67 °F

Past Weeks' High & Low Weather Summary

 TemperatureHumidityPressure
High97 °F (Jul 4, 2:50 PM)100% (Jun 22, 10:50 PM)30.27 "Hg (Jun 22, 10:50 PM)
Low48 °F (Jun 22, 10:50 PM)31% (Jul 1, 6:20 PM)29.65 "Hg (Jun 22, 9:20 PM)
Average67 °F70%30.07 "Hg
* Reported Jun 22 10:20 AM — Jul 7 10:20 AM, Langenhagen, Weather by CustomWeather, © 2015

Note: Actual official high and low records may vary slightly from our data, if they occured in-between our weather recording intervals... More about our weather records

Advertising

Langenhagen weather history for previous 24 hours

 ConditionsComfort  
Time TempWeatherWind HumidityBarometerVisibility
10:20 AM
Tue, Jul 7
75 °FPassing clouds.7 mph50%29.89 "HgN/A
9:50 AM75 °FPassing clouds.8 mph50%29.92 "HgN/A
9:20 AM72 °FPassing clouds.8 mph61%29.92 "HgN/A
8:50 AM70 °FSunny.9 mph64%29.95 "Hg10 mi
8:20 AM68 °FSunny.9 mph69%29.95 "Hg10 mi
7:50 AM68 °FSunny.8 mph69%29.98 "Hg10 mi
7:20 AM64 °FSunny.8 mph73%29.98 "Hg10 mi
6:50 AM64 °FSunny.6 mph78%29.98 "Hg10 mi
6:20 AM59 °FFog.3 mph88%29.98 "HgN/A
5:50 AM57 °FFog.2 mph88%30.01 "HgN/A
5:20 AM57 °FFog.2 mph88%30.01 "HgN/A
4:50 AM59 °FFog.2 mph88%30.01 "HgN/A
4:20 AM57 °FFog.3 mph88%30.01 "HgN/A
3:50 AM57 °FClear.2 mph94%30.01 "Hg10 mi
3:20 AM57 °FClear.2 mph94%30.04 "Hg10 mi
2:50 AM59 °FClear.1 mph88%30.04 "Hg10 mi
2:20 AM57 °FClear.1 mph94%30.04 "Hg10 mi
1:50 AM59 °FClear.2 mph82%30.04 "Hg10 mi
1:20 AM59 °FClear.3 mph88%30.04 "Hg10 mi
12:50 AM59 °FClear.2 mph88%30.07 "Hg10 mi
12:20 AM59 °FClear.1 mph82%30.07 "Hg10 mi
11:50 PM
Mon, Jul 6
61 °FClear.1 mph83%30.07 "Hg10 mi
11:20 PM61 °FClear.No wind77%30.07 "Hg10 mi
10:50 PM61 °FClear.2 mph77%30.07 "Hg10 mi
10:20 PM63 °FSunny.2 mph73%30.09 "Hg10 mi
9:50 PM66 °FSunny.1 mph64%30.07 "Hg10 mi
9:20 PM68 °FPassing clouds.3 mph60%30.07 "HgN/A
8:50 PM70 °FPassing clouds.6 mph53%30.09 "HgN/A
8:20 PM72 °FSunny.7 mph50%30.09 "Hg10 mi
7:50 PM72 °FPassing clouds.8 mph50%30.09 "HgN/A
7:20 PM73 °FPassing clouds.8 mph47%30.09 "HgN/A
6:50 PM73 °FPassing clouds.9 mph47%30.09 "HgN/A
6:20 PM73 °FPassing clouds.10 mph50%30.09 "HgN/A
5:50 PM73 °FPassing clouds.12 mph50%30.09 "HgN/A
5:20 PM75 °FScattered clouds.8 mph47%30.09 "HgN/A
4:50 PM72 °FScattered clouds.10 mph50%30.12 "HgN/A
4:20 PM73 °FScattered clouds.12 mph50%30.12 "HgN/A
3:50 PM72 °FScattered clouds.9 mph53%30.12 "HgN/A
3:20 PM72 °FScattered clouds.13 mph53%30.12 "HgN/A
2:50 PM72 °FScattered clouds.10 mph53%30.12 "HgN/A
2:20 PM72 °FScattered clouds.12 mph53%30.12 "HgN/A
1:50 PM70 °FScattered clouds.13 mph57%30.12 "HgN/A
1:20 PM70 °FScattered clouds.15 mph57%30.12 "HgN/A
12:50 PM68 °FScattered clouds.12 mph64%30.12 "HgN/A
12:20 PM70 °FScattered clouds.12 mph64%30.12 "HgN/A
11:50 AM68 °FScattered clouds.13 mph69%30.12 "HgN/A
11:20 AM68 °FScattered clouds.12 mph69%30.12 "HgN/A
Weather by CustomWeather, © 2015

See weather overviewHow to use our weather pages